• In Czech Republic
  • List of Countries
  • For 7 days
  • Water Temperature
  • Satellite Maps
  • Weather Map
  • Weather Widgets
  • user-avatar
    Login

    Hourly Weather Nehrybka

    Today, 21 July, Saturday

    Time Temperature Precipitation Wind Pressure Humidity
    00:00 +18°C° 0 mm 2 mps 741 mmHg 93%
    01:00 +18°C° 0 mm 2 mps 741 mmHg 94%
    02:00 +17°C° 0 mm 2 mps 741 mmHg 95%
    03:00 +17°C° 0 mm 2 mps 741 mmHg 95%
    04:00 +17°C° 0 mm 2 mps 741 mmHg 95%
    05:00 +16°C° 0 mm 2 mps 741 mmHg 96%
    06:00 +18°C° 0 mm 2 mps 741 mmHg 91%
    07:00 +19°C° 0 mm 2 mps 742 mmHg 86%
    08:00 +21°C° 0 mm 3 mps 742 mmHg 82%
    09:00 +22°C° 0 mm 3 mps 742 mmHg 75%
    10:00 +24°C° 0 mm 3 mps 742 mmHg 69%
    11:00 +26°C° 0 mm 3 mps 742 mmHg 63%
    12:00 +26°C° 0 mm 3 mps 741 mmHg 60%
    13:00 +27°C° 0 mm 3 mps 741 mmHg 58%
    14:00 +27°C° 0 mm 3 mps 741 mmHg 55%
    15:00 +27°C° 0.1 mm 3 mps 741 mmHg 57%
    16:00 +27°C° 0.1 mm 3 mps 741 mmHg 58%
    17:00 +27°C° 0.1 mm 3 mps 741 mmHg 60%
    18:00 +25°C° 0 mm 2 mps 741 mmHg 66%
    19:00 +24°C° 0 mm 2 mps 741 mmHg 73%
    20:00 +22°C° 0 mm 1 mps 741 mmHg 80%
    21:00 +21°C° 0 mm 1 mps 741 mmHg 82%
    22:00 +20°C° 0 mm 1 mps 741 mmHg 83%
    23:00 +19°C° 0 mm 1 mps 741 mmHg 85%

    Tomorrow, 22 July, Sunday

    Time Temperature Precipitation Wind Pressure Humidity
    00:00 +19°C° 0 mm 1 mps 741 mmHg 86%
    01:00 +18°C° 0 mm 1 mps 741 mmHg 86%
    02:00 +18°C° 0 mm 1 mps 741 mmHg 87%
    03:00 +18°C° 0 mm 1 mps 741 mmHg 87%
    04:00 +16°C° 0 mm 1 mps 741 mmHg 88%
    05:00 +16°C° 0 mm 1 mps 741 mmHg 89%
    06:00 +19°C° 0 mm 1 mps 741 mmHg 84%
    07:00 +21°C° 0 mm 1 mps 741 mmHg 79%
    08:00 +23°C° 0 mm 1 mps 741 mmHg 75%
    09:00 +24°C° 0 mm 1 mps 741 mmHg 70%
    10:00 +26°C° 0 mm 1 mps 741 mmHg 65%
    11:00 +27°C° 0 mm 1 mps 741 mmHg 61%
    12:00 +27°C° 0 mm 1 mps 740 mmHg 59%
    13:00 +28°C° 0 mm 1 mps 740 mmHg 56%
    14:00 +29°C° 0 mm 2 mps 740 mmHg 54%
    15:00 +28°C° 0.1 mm 2 mps 740 mmHg 55%
    16:00 +28°C° 0.1 mm 2 mps 740 mmHg 57%
    17:00 +28°C° 0.1 mm 2 mps 739 mmHg 58%
    18:00 +26°C° 0 mm 2 mps 739 mmHg 64%
    19:00 +25°C° 0 mm 1 mps 739 mmHg 71%
    20:00 +23°C° 0 mm 1 mps 739 mmHg 77%
    21:00 +22°C° 0 mm 1 mps 740 mmHg 79%
    22:00 +21°C° 0 mm 1 mps 740 mmHg 82%
    23:00 +20°C° 0 mm 1 mps 740 mmHg 84%

    Day after tomorrow, 23 July, Monday

    Time Temperature Precipitation Wind Pressure Humidity
    00:00 +20°C° 0 mm 1 mps 740 mmHg 86%
    01:00 +19°C° 0 mm 1 mps 739 mmHg 87%
    02:00 +19°C° 0 mm 1 mps 739 mmHg 88%
    03:00 +18°C° 0 mm 1 mps 739 mmHg 89%
    04:00 +18°C° 0 mm 1 mps 739 mmHg 90%
    05:00 +18°C° 0 mm 1 mps 739 mmHg 91%
    06:00 +19°C° 0 mm 1 mps 739 mmHg 86%
    07:00 +21°C° 0 mm 1 mps 739 mmHg 82%
    08:00 +23°C° 0 mm 1 mps 739 mmHg 77%
    09:00 +24°C° 0.1 mm 2 mps 739 mmHg 73%
    10:00 +26°C° 0.1 mm 2 mps 739 mmHg 68%
    11:00 +27°C° 0.1 mm 3 mps 739 mmHg 64%
    12:00 +27°C° 0.1 mm 3 mps 739 mmHg 62%
    13:00 +28°C° 0.1 mm 3 mps 739 mmHg 60%
    14:00 +28°C° 0.1 mm 3 mps 739 mmHg 59%
    15:00 +28°C° 0.4 mm 3 mps 738 mmHg 62%
    16:00 +28°C° 0.4 mm 3 mps 738 mmHg 65%
    17:00 +27°C° 0.4 mm 3 mps 738 mmHg 68%
    18:00 +26°C° 0.2 mm 3 mps 738 mmHg 73%
    19:00 +24°C° 0.2 mm 2 mps 739 mmHg 78%
    20:00 +23°C° 0.2 mm 2 mps 739 mmHg 83%
    21:00 +21°C° 0.1 mm 2 mps 739 mmHg 85%
    22:00 +20°C° 0.1 mm 2 mps 739 mmHg 87%
    23:00 +19°C° 0.1 mm 2 mps 739 mmHg 89%

    24 July, Tuesday

    Time Temperature Precipitation Wind Pressure Humidity
    00:00 +19°C° 0 mm 2 mps 739 mmHg 91%
    01:00 +18°C° 0 mm 2 mps 739 mmHg 92%
    02:00 +18°C° 0 mm 2 mps 739 mmHg 94%
    03:00 +18°C° 0 mm 2 mps 739 mmHg 95%
    04:00 +17°C° 0 mm 2 mps 739 mmHg 95%
    05:00 +17°C° 0 mm 2 mps 740 mmHg 96%
    06:00 +18°C° 0 mm 2 mps 740 mmHg 92%
    07:00 +19°C° 0 mm 3 mps 740 mmHg 89%
    08:00 +21°C° 0 mm 3 mps 740 mmHg 85%
    09:00 +22°C° 0 mm 4 mps 740 mmHg 78%
    10:00 +23°C° 0 mm 4 mps 740 mmHg 71%
    11:00 +25°C° 0 mm 5 mps 740 mmHg 64%
    12:00 +26°C° 0 mm 5 mps 740 mmHg 62%
    13:00 +27°C° 0 mm 5 mps 740 mmHg 59%
    14:00 +27°C° 0 mm 4 mps 739 mmHg 56%
    15:00 +27°C° 0 mm 4 mps 739 mmHg 58%
    16:00 +27°C° 0 mm 4 mps 739 mmHg 59%
    17:00 +27°C° 0 mm 4 mps 739 mmHg 61%
    18:00 +25°C° 0.1 mm 3 mps 739 mmHg 68%
    19:00 +24°C° 0.1 mm 3 mps 739 mmHg 74%
    20:00 +21°C° 0.1 mm 2 mps 739 mmHg 81%
    21:00 +20°C° 0 mm 2 mps 739 mmHg 85%
    22:00 +19°C° 0 mm 2 mps 740 mmHg 88%
    23:00 +19°C° 0 mm 1 mps 740 mmHg 92%

    25 July, Wednesday

    Time Temperature Precipitation Wind Pressure Humidity
    00:00 +19°C° 0 mm 1 mps 740 mmHg 93%
    01:00 +18°C° 0 mm 2 mps 739 mmHg 94%
    02:00 +17°C° 0 mm 2 mps 739 mmHg 95%
    03:00 +17°C° 0 mm 2 mps 739 mmHg 95%
    04:00 +17°C° 0 mm 2 mps 740 mmHg 96%
    05:00 +17°C° 0 mm 2 mps 740 mmHg 96%
    06:00 +18°C° 0.1 mm 2 mps 740 mmHg 94%
    07:00 +19°C° 0.1 mm 2 mps 740 mmHg 92%
    08:00 +20°C° 0.1 mm 3 mps 740 mmHg 90%
    09:00 +21°C° 0.1 mm 3 mps 740 mmHg 89%
    10:00 +21°C° 0.1 mm 3 mps 740 mmHg 87%
    11:00 +22°C° 0.1 mm 3 mps 740 mmHg 86%
    12:00 +24°C° 0.2 mm 3 mps 740 mmHg 83%
    13:00 +25°C° 0.2 mm 3 mps 740 mmHg 80%
    14:00 +25°C° 0.2 mm 3 mps 740 mmHg 78%
    15:00 +26°C° 0.2 mm 3 mps 739 mmHg 77%
    16:00 +26°C° 0.2 mm 3 mps 739 mmHg 75%
    17:00 +26°C° 0.2 mm 3 mps 739 mmHg 74%
    18:00 +25°C° 0.3 mm 2 mps 739 mmHg 80%
    19:00 +24°C° 0.3 mm 2 mps 739 mmHg 85%
    20:00 +23°C° 0.3 mm 1 mps 739 mmHg 90%
    21:00 +22°C° 0.4 mm 1 mps 739 mmHg 92%
    22:00 +22°C° 0.4 mm 1 mps 739 mmHg 93%
    23:00 +21°C° 0.4 mm 1 mps 740 mmHg 94%

    26 July, Thursday

    Time Temperature Precipitation Wind Pressure Humidity
    00:00 +21°C° 0 mm 1 mps 740 mmHg 95%
    01:00 +20°C° 0 mm 1 mps 740 mmHg 96%
    02:00 +20°C° 0 mm 1 mps 740 mmHg 96%
    03:00 +20°C° 0 mm 1 mps 740 mmHg 96%
    04:00 +20°C° 0 mm 1 mps 740 mmHg 97%
    05:00 +20°C° 0 mm 1 mps 740 mmHg 97%
    06:00 +21°C° 0 mm 1 mps 740 mmHg 96%
    07:00 +22°C° 0 mm 1 mps 741 mmHg 94%
    08:00 +23°C° 0 mm 1 mps 741 mmHg 92%
    09:00 +24°C° 0.3 mm 1 mps 741 mmHg 89%
    10:00 +25°C° 0.3 mm 1 mps 741 mmHg 85%
    11:00 +26°C° 0.3 mm 2 mps 741 mmHg 82%
    12:00 +26°C° 0.3 mm 2 mps 741 mmHg 78%
    13:00 +27°C° 0.3 mm 2 mps 741 mmHg 74%
    14:00 +28°C° 0.3 mm 2 mps 741 mmHg 70%
    15:00 +28°C° 0.7 mm 2 mps 741 mmHg 70%
    16:00 +28°C° 0.7 mm 2 mps 741 mmHg 70%
    17:00 +28°C° 0.7 mm 2 mps 741 mmHg 71%
    18:00 +27°C° 0.2 mm 1 mps 741 mmHg 76%
    19:00 +26°C° 0.2 mm 1 mps 741 mmHg 82%
    20:00 +24°C° 0.2 mm 1 mps 741 mmHg 87%
    21:00 +24°C° 0 mm 1 mps 741 mmHg 89%
    22:00 +23°C° 0 mm 1 mps 742 mmHg 90%
    23:00 +22°C° 0 mm 1 mps 742 mmHg 92%
    Show more